Other Surface Observations
Issued by NWS Charleston, SC

Home | Current Version | Previous Version | Text Only | Print | Product List | Glossary On
Versions: 1 2 3 4 5 6 7 8 9 10 11 12 13 14 15 16 17 18 19 20 21 22 23 24 25 26 27 28 29 30 31 32 33 34 35 36 37 38 39 40 41 42 43 44 45 46 47 48 49 50
000
SXUS52 KCHS 060127
OSOCHS

MARINE OBSERVATIONS
NATIONAL WEATHER SERVICE CHARLESTON SC
800 PM EST MON DEC 05 2016

...DOWNTOWN CHARLESTON AND HARBOR...

CITY           SKY/WX    TMP DP  RH WIND       PRES   REMARKS
WATERFRONT PRK   N/A     58  57  96 NE8       29.96R

...LAKE MOULTRIE...

CITY           SKY/WX    TMP DP  RH WIND       PRES   REMARKS
PINOPOLIS        N/A     55  55 100 NE15      29.89F

...LAKE AND SUPPLEMENTAL COASTAL OBSERVATIONS...

STATION/POSITION TIME  TEMP    WIND        PRES    WAVE   SWELL
                       AIR SEA DIR/SP/G            HT/PER HT/PER/DIR
                 (UTC) (F)     (DEG/KT/KT) (MB)    (FT/S) (FT/S/D)
FORT PULASKI     0100   60 62   60/ 10/ 13 1014.4
SAPELO ISLAND    0100   63      40/  8     1012.0
WINYAH BAY       0045   57      50/  8     1015.0S
LAKE MURRAY      0020   56      60/  1/  5 1015.2
ACE BASIN NERRS  0045   58      30/  2     1015.0R


...C-MAN AND BUOY OBSERVATIONS...

STATION/POSITION TIME  TEMP    WIND        PRES    WAVE   SWELL
                       AIR SEA DIR/SP/G            HT/PER HT/PER/DIR
                 (UTC) (F)     (DEG/KT/KT) (MB)    (FT/S) (FT/S/D)
BUOY 41004       0050   68 73   80/ 16/ 17 1013.6R   4/ 6   2/ 60/11
BUOY 41008       0050   65 65   50/ 14/ 16 1012.5F   3/ 5   2/120/ 8
FOLLY BEACH CMAN 0100   58      30/ 13/ 15 1015.5R
CAPERS NS BUOY   0008   59 62   60/ 16/ 23 1014.6R
FRIPP NS BUOY    0108   61 62   40/ 14/ 17 1014.5R
5E ST. MARYS GA  0100      66                N/A     3/ 5


STATION/POSITION TIME  TEMP    WIND        PRES    WAVE   SWELL
                       AIR SEA DIR/SP/G            HT/PER HT/PER/DIR
                 (UTC) (F)     (DEG/KT/KT) (MB)    (FT/S) (FT/S/D)
FRYING PAN BUOY  0100   66 74   60/ 17/ 25 1015.3
BUOY 41025       0050   57 76   20/ 16/ 21 1016.9R   5/ 8   3/130/ 8
CAPE LOOKOUT NC  0100   54      40/ 17/ 20 1017.3R
BUOY 41002       0050   71 74  230/ 16/ 19 1015.6R   6/ 6   2/ 10/10
BUOY 41010       NOT AVBL
ST AUGUSTINE FL  0100   70 68  180/ 10/ 11 1012.7F

$$




USA.gov is the U.S. government's official web portal to all federal, state and local government web resources and services.